Location: Calberlah
(52.4230°N, 10.6240°E)
Time: 05:07:53
(UTC+00:00)

Cosmos 1842 - Pass Details

Date: 19 May 2025
Orbit: 440 x 450 km, 82.5° (Epoch: 14 June)

Event Time Altitude Azimuth Distance (km) Brightness Sun altitude
Exits shadow 23:37:05 21° 252° (WSW) 1,076 4.6 -17.4°
Maximum altitude 23:38:27 27° 289° (WNW) 901 4.5 -17.4°
Drops below altitude 10° 23:41:30 10° 350° (N) 1,603 6.9 -17.3°
Sets 23:43:48 0° 3° (N) 2,483 8.4 -17.3°
